Location: Bottens
(46.6171°N, 6.6605°E)
Time: 13:43:50
(UTC+00:00)

ATLAS 5 CENTAUR R/B - Pass Details

Date: 31 October 2021
Orbit: 497 x 1159 km, 63.4° (Epoch: 25 November)

Event Time Altitude Azimuth Distance (km) Brightness Sun altitude
Rises 17:18:35 0° 285° (WNW) 2,731 6.2 -10.6°
Reaches altitude 10° 17:21:46 10° 313° (NW) 1,938 4.6 -11.2°
Maximum altitude 17:23:58 13° 344° (NNW) 1,796 4.0 -11.6°
Drops below altitude 10° 17:26:18 10° 14° (NNE) 2,112 4.1 -12.0°
Enters shadow 17:28:32 - 32° (NNE) 2,701 4.5 -12.3°
